• In Kazakhstan
  • List of Countries
  • For 7 days
  • Water Temperature
  • Satellite Maps
  • Weather Map
  • News
  • Weather Widgets
  • user-avatar
    Login

    Hourly Weather Naiham

    Today, 24 November, Friday

    Time Temperature Precipitation Wind Pressure Humidity
    00:00 +10°C° 0 mm 0 mps 712 mmHg 82%
    01:00 +10°C° 0 mm 0 mps 712 mmHg 83%
    02:00 +10°C° 0 mm 0 mps 712 mmHg 82%
    03:00 +10°C° 0 mm 0 mps 712 mmHg 81%
    04:00 +10°C° 0 mm 0 mps 712 mmHg 80%
    05:00 +11°C° 0 mm 1 mps 712 mmHg 79%
    06:00 +11°C° 0 mm 1 mps 712 mmHg 78%
    07:00 +11°C° 0 mm 1 mps 712 mmHg 78%
    08:00 +13°C° 0 mm 1 mps 713 mmHg 71%
    09:00 +15°C° 0 mm 1 mps 713 mmHg 64%
    10:00 +16°C° 0 mm 1 mps 713 mmHg 57%
    11:00 +18°C° 0 mm 1 mps 713 mmHg 56%
    12:00 +19°C° 0 mm 1 mps 712 mmHg 55%
    13:00 +20°C° 0 mm 1 mps 712 mmHg 54%
    14:00 +20°C° 0 mm 1 mps 711 mmHg 56%
    15:00 +19°C° 0 mm 1 mps 711 mmHg 59%
    16:00 +19°C° 0 mm 1 mps 711 mmHg 61%
    17:00 +16°C° 0 mm 1 mps 711 mmHg 69%
    18:00 +14°C° 0 mm 1 mps 711 mmHg 76%
    19:00 +13°C° 0 mm 1 mps 711 mmHg 83%
    20:00 +12°C° 0 mm 1 mps 711 mmHg 85%
    21:00 +11°C° 0 mm 0 mps 712 mmHg 87%
    22:00 +10°C° 0 mm 0 mps 712 mmHg 89%
    23:00 +10°C° 0 mm 0 mps 712 mmHg 89%

    Tomorrow, 25 November, Saturday

    Time Temperature Precipitation Wind Pressure Humidity
    00:00 +10°C° 0 mm 0 mps 712 mmHg 89%
    01:00 +10°C° 0 mm 0 mps 712 mmHg 88%
    02:00 +10°C° 0 mm 0 mps 712 mmHg 89%
    03:00 +10°C° 0 mm 0 mps 711 mmHg 89%
    04:00 +10°C° 0 mm 0 mps 711 mmHg 89%
    05:00 +11°C° 0.1 mm 0 mps 711 mmHg 89%
    06:00 +11°C° 0.1 mm 0 mps 712 mmHg 89%
    07:00 +11°C° 0.1 mm 0 mps 712 mmHg 89%
    08:00 +13°C° 0.3 mm 0 mps 712 mmHg 84%
    09:00 +14°C° 0.3 mm 0 mps 713 mmHg 79%
    10:00 +16°C° 0.3 mm 0 mps 713 mmHg 74%
    11:00 +18°C° 0.2 mm 0 mps 712 mmHg 70%
    12:00 +21°C° 0.2 mm 1 mps 712 mmHg 66%
    13:00 +23°C° 0.2 mm 1 mps 711 mmHg 62%
    14:00 +23°C° 0 mm 1 mps 711 mmHg 64%
    15:00 +22°C° 0 mm 1 mps 710 mmHg 66%
    16:00 +22°C° 0 mm 1 mps 710 mmHg 68%
    17:00 +20°C° 0 mm 1 mps 710 mmHg 76%
    18:00 +18°C° 0 mm 1 mps 710 mmHg 85%
    19:00 +16°C° 0 mm 1 mps 711 mmHg 94%
    20:00 +14°C° 0 mm 0 mps 711 mmHg 94%
    21:00 +14°C° 0 mm 0 mps 712 mmHg 94%
    22:00 +14°C° 0 mm 0 mps 712 mmHg 95%
    23:00 +14°C° 0 mm 0 mps 712 mmHg 94%

    Day after tomorrow, 26 November, Sunday

    Time Temperature Precipitation Wind Pressure Humidity
    00:00 +14°C° 0 mm 0 mps 712 mmHg 94%
    01:00 +14°C° 0 mm 0 mps 712 mmHg 94%
    02:00 +14°C° 0 mm 0 mps 711 mmHg 94%
    03:00 +14°C° 0 mm 0 mps 711 mmHg 95%
    04:00 +13°C° 0 mm 0 mps 711 mmHg 96%
    05:00 +14°C° 0 mm 0 mps 711 mmHg 95%
    06:00 +14°C° 0 mm 0 mps 711 mmHg 95%
    07:00 +14°C° 0 mm 0 mps 712 mmHg 94%
    08:00 +16°C° 0 mm 0 mps 712 mmHg 86%
    09:00 +20°C° 0 mm 1 mps 713 mmHg 77%
    10:00 +21°C° 0 mm 1 mps 713 mmHg 69%
    11:00 +22°C° 0 mm 1 mps 712 mmHg 66%
    12:00 +23°C° 0 mm 1 mps 712 mmHg 64%
    13:00 +24°C° 0 mm 1 mps 711 mmHg 61%
    14:00 +24°C° 0 mm 1 mps 710 mmHg 65%
    15:00 +23°C° 0 mm 1 mps 710 mmHg 68%
    16:00 +22°C° 0 mm 1 mps 709 mmHg 71%
    17:00 +21°C° 0 mm 1 mps 709 mmHg 79%
    18:00 +17°C° 0 mm 0 mps 709 mmHg 86%
    19:00 +15°C° 0 mm 0 mps 710 mmHg 93%
    20:00 +15°C° 0 mm 0 mps 710 mmHg 94%
    21:00 +15°C° 0 mm 0 mps 710 mmHg 95%
    22:00 +14°C° 0 mm 0 mps 710 mmHg 96%
    23:00 +14°C° 0 mm 0 mps 710 mmHg 96%

    27 November, Monday

    Time Temperature Precipitation Wind Pressure Humidity
    00:00 +14°C° 0 mm 0 mps 710 mmHg 97%
    01:00 +14°C° 0 mm 0 mps 709 mmHg 97%
    02:00 +14°C° 0 mm 0 mps 709 mmHg 97%
    03:00 +13°C° 0 mm 0 mps 709 mmHg 97%
    04:00 +13°C° 0 mm 0 mps 708 mmHg 98%
    05:00 +14°C° 0 mm 0 mps 709 mmHg 97%
    06:00 +14°C° 0 mm 0 mps 709 mmHg 96%
    07:00 +14°C° 0 mm 0 mps 709 mmHg 95%
    08:00 +17°C° 0 mm 0 mps 710 mmHg 83%
    09:00 +20°C° 0 mm 0 mps 710 mmHg 71%
    10:00 +23°C° 0 mm 0 mps 711 mmHg 59%
    11:00 +24°C° 0 mm 0 mps 710 mmHg 57%
    12:00 +27°C° 0 mm 1 mps 709 mmHg 55%
    13:00 +28°C° 0 mm 1 mps 708 mmHg 53%
    14:00 +27°C° 0 mm 1 mps 707 mmHg 58%
    15:00 +26°C° 0 mm 1 mps 707 mmHg 63%
    16:00 +25°C° 0 mm 1 mps 706 mmHg 68%
    17:00 +23°C° 0 mm 1 mps 707 mmHg 77%
    18:00 +21°C° 0 mm 1 mps 707 mmHg 87%
    19:00 +19°C° 0 mm 1 mps 707 mmHg 96%
    20:00 +17°C° 0 mm 0 mps 707 mmHg 97%
    21:00 +17°C° 0 mm 0 mps 708 mmHg 98%
    22:00 +16°C° 0 mm 0 mps 708 mmHg 98%
    23:00 +16°C° 0 mm 0 mps 708 mmHg 98%

    28 November, Tuesday

    Time Temperature Precipitation Wind Pressure Humidity
    00:00 +16°C° 0 mm 0 mps 708 mmHg 98%
    01:00 +16°C° 0 mm 0 mps 707 mmHg 98%
    02:00 +16°C° 0 mm 0 mps 707 mmHg 98%
    03:00 +16°C° 0 mm 0 mps 707 mmHg 98%
    04:00 +16°C° 0 mm 0 mps 707 mmHg 98%
    05:00 +16°C° 0 mm 0 mps 708 mmHg 98%
    06:00 +16°C° 0 mm 0 mps 708 mmHg 97%
    07:00 +17°C° 0 mm 0 mps 708 mmHg 96%
    08:00 +19°C° 0 mm 0 mps 709 mmHg 86%
    09:00 +21°C° 0 mm 0 mps 710 mmHg 76%
    10:00 +24°C° 0 mm 0 mps 710 mmHg 66%
    11:00 +26°C° 0 mm 1 mps 710 mmHg 64%
    12:00 +27°C° 0 mm 1 mps 709 mmHg 63%
    13:00 +27°C° 0 mm 1 mps 708 mmHg 62%
    14:00 +27°C° 0 mm 1 mps 708 mmHg 65%
    15:00 +26°C° 0 mm 1 mps 707 mmHg 68%
    16:00 +26°C° 0 mm 1 mps 707 mmHg 71%
    17:00 +24°C° 0 mm 1 mps 707 mmHg 80%
    18:00 +22°C° 0 mm 1 mps 707 mmHg 88%
    19:00 +18°C° 0 mm 0 mps 708 mmHg 97%
    20:00 +18°C° 0 mm 0 mps 708 mmHg 98%
    21:00 +18°C° 0 mm 0 mps 708 mmHg 98%
    22:00 +18°C° 0 mm 0 mps 709 mmHg 99%
    23:00 +18°C° 0 mm 0 mps 708 mmHg 98%

    29 November, Wednesday

    Time Temperature Precipitation Wind Pressure Humidity
    00:00 +19°C° 0 mm 0 mps 708 mmHg 98%
    01:00 +19°C° 0 mm 0 mps 708 mmHg 98%
    02:00 +19°C° 0.1 mm 0 mps 708 mmHg 98%
    03:00 +19°C° 0.1 mm 0 mps 708 mmHg 98%
    04:00 +19°C° 0.1 mm 0 mps 708 mmHg 98%
    05:00 +19°C° 0 mm 0 mps 708 mmHg 98%
    06:00 +19°C° 0 mm 0 mps 708 mmHg 98%
    07:00 +19°C° 0 mm 0 mps 709 mmHg 98%
    08:00 +20°C° 0 mm 0 mps 709 mmHg 91%
    09:00 +22°C° 0 mm 0 mps 709 mmHg 84%
    10:00 +24°C° 0 mm 0 mps 710 mmHg 77%
    11:00 +24°C° 0.1 mm 0 mps 709 mmHg 74%
    12:00 +27°C° 0.1 mm 1 mps 708 mmHg 71%
    13:00 +28°C° 0.1 mm 1 mps 707 mmHg 69%
    14:00 +27°C° 0.2 mm 1 mps 707 mmHg 71%
    15:00 +27°C° 0.2 mm 1 mps 707 mmHg 73%
    16:00 +27°C° 0.2 mm 1 mps 706 mmHg 75%
    17:00 +25°C° 0.1 mm 1 mps 707 mmHg 83%
    18:00 +23°C° 0.1 mm 1 mps 707 mmHg 90%
    19:00 +20°C° 0.1 mm 0 mps 707 mmHg 98%
    20:00 +20°C° 0.1 mm 0 mps 708 mmHg 98%
    21:00 +20°C° 0.1 mm 0 mps 708 mmHg 98%
    22:00 +20°C° 0.1 mm 0 mps 708 mmHg 99%
    23:00 +20°C° 0.1 mm 0 mps 708 mmHg 99%
    Show more